Simultaneous Nadir Overpasses (SNOs) Predictions

Prediction of SNOs between NOAA-20 and TERRA Satellite Orbit:

Table of predicted SNOs for the next 14.0 days since TLE Epoch: 8/3/2024
Index Date (NOAA-20) Time (NOAA-20) Lat,Lon (NOAA-20) SZA (NOAA-20 ) Date (TERRA) Time (TERRA) Lat,Lon (TERRA) SZA (TERRA ) Distance(km) Time Diff (sec)
1 08/04/2024 01:47:13 72.46, 145.44 55.49 08/04/2024 01:48:15 72.47, 145.38 55.48 2.06 62
2 08/04/2024 02:37:55 -72.37, -47.07 124.60 08/04/2024 02:37:38 -72.38, -47.11 124.59 1.72 17
3 08/06/2024 13:50:21 -72.42, 144.74 123.88 08/06/2024 13:50:39 -72.43, 144.68 123.87 2.21 18
4 08/06/2024 14:41:06 72.37, -47.85 56.07 08/06/2024 14:40:01 72.34, -47.82 56.06 3.09 65
5 08/09/2024 01:02:47 -72.47, -23.48 123.13 08/09/2024 01:03:39 -72.49, -23.50 123.12 2.45 52
6 08/09/2024 01:53:31 72.37, 144.03 56.78 08/09/2024 01:53:01 72.40, 144.00 56.81 3.18 30
7 08/11/2024 12:15:23 -73.04, 167.24 121.78 08/11/2024 12:16:32 -72.89, 168.95 122.04 58.14 69
8 08/11/2024 13:05:57 72.44, -24.22 57.57 08/11/2024 13:06:01 72.42, -24.25 57.56 2.29 4
9 08/11/2024 13:56:38 -72.28, 143.41 122.59 08/11/2024 13:55:24 -72.34, 143.27 122.51 7.96 74
10 08/14/2024 00:18:22 72.46, 167.63 58.35 08/14/2024 00:19:00 72.46, 167.53 58.33 3.36 38
11 08/14/2024 01:09:05 -72.40, -24.94 121.71 08/14/2024 01:08:23 -72.38, -24.95 121.73 2.76 42
12 08/16/2024 11:30:48 72.55, -0.65 59.20 08/16/2024 11:31:57 72.56, -0.56 59.20 3.21 69
13 08/16/2024 12:21:30 -72.43, 166.90 120.92 08/16/2024 12:21:21 -72.43, 166.86 120.91 1.30 9



Historial Predications of SNOs between NOAA-20 and TERRA
